ATLAS AGENA B DEB, 3132

Orbit data source: Space-Track

ATLAS AGENA B DEB, 3132 is space debris in LEO originally from a launch on Fri, 19 Jul 1963 UTC launched from the Air Force Western Test Range (AFWTR). Debris objects in space refer to the collection of defunct objects orbiting the Earth. Examples of debris include non-operational satellites, rocket bodies, and fragments generated from explosions, collisions, or faulty payload assembly.

Loading next visibility...
Identifier
3132, 1963-030G
Orbit
LEO
Last TLE update
1 week ago
Origin
Manufacturer
Unknown
Mission
Spacecraft
Bus & Motor
Unknown
Mass
Unknown
Launch date (UTC)
1963-07-19 (62 years ago)
Launch vehicle
Unknown
Launch site
Air Force Western Test Range (AFWTR)
Object type
Payload
Rocket body
Debris
Shape & HBR
Unknown
Radar Cross Section
Medium (>0.1 m² and <1 m²)

Expand to show TLE details & history

TLE from 1 week ago
0 ATLAS AGENA B DEB
1 03132U 63030G   25182.28129494 -.00000024  00000-0 -13503-1 0  9999
2 03132  88.4168 231.0648 0098083  47.8669 313.0467  8.57860598429777
Epoch: 2025-07-01T06:45Z
TLE epoch observation values (Epoch: 2025-07-01T06:45:03.882Z)
Latitude
Longitude
-149.78037°
Altitude
3,636.999 km
Speed
6.33 km/s
True Right ascension
15h 24m 15s
True Declination
0° 00' 00"
Sunlit
Object was in daylight at epoch
Visualization orbit readout
Latitude
77.52342°
Longitude
22.70839°
Altitude
3,666.457 km
Speed
6.321 km/s
Apparent Right ascension
21h 59m 40s
Apparent Declination
48° 33' 45"
Sunlit
Object is in daylight
Visualization observer readout
Local Sidereal Time
08:18:50
Azimuth
343.625° N
Elevation
1.248°
Doppler factor
1
Orbital elements
Apogee altitude
3,798.462 km
Perigee altitude
3,600.77 km
Semi-major axis
10,077.753 km
Eccentricity
0.00981
Inclination
88.4168°
RAAN
231.0648°
Arg. of periapsis
47.8669°
True anomaly
Unknown
Mean anomaly
313.0467°
Eccentric anomaly
Unknown
Mean motion
2.14535 °/min
Orbital period
167.8 mins
BSTAR
-0.013503
Loading maneuver chart data...
Loading SW <> Apogee altitude chart data...
Loading historical data...
Loading historical data...
Loading historical data...
Loading historical data...
Loading historical data...
Loading historical data...
Loading historical data...

ATLAS AGENA B DEB Visibility forecast

Observer location: undefined°, undefined°

Span
Click to sort rows by Start time (UTC) header in descending order
Start Az.
Max El. time (UTC)
Max El. Az.
Max El.
End time (UTC)
End Az.
30 mins2025-07-08 01:09:07.482Z125.833° SE2025-07-08 01:24:07.482Z69.835° E30.752°2025-07-08 01:39:07.482Z11.01° NNE
35 mins2025-07-08 03:53:07.482Z194.291° SSW2025-07-08 04:10:07.482Z272.847° WNW42.35°2025-07-08 04:28:07.482Z357.151° N
12 mins2025-07-08 06:59:07.482Z291.406° WNW2025-07-08 07:05:07.482Z311.997° NW12.39°2025-07-08 07:11:07.482Z332.403° NNW
33 mins2025-07-08 13:03:07.482Z9.847° NNE2025-07-08 13:19:07.482Z75.169° E32.748°2025-07-08 13:36:07.482Z140.166° SSE
34 mins2025-07-08 15:51:07.482Z353.973° N2025-07-08 16:07:07.482Z284.715° WNW41.302°2025-07-08 16:25:07.482Z208.043° SW
10 mins2025-07-08 18:44:07.482Z327.602° NNW2025-07-08 18:48:07.482Z314.213° NW12.208°2025-07-08 18:54:07.482Z294.493° NW
|